Location: Alphen
(52.1351°N, 4.6549°E)
Time: 02:14:39
(UTC+00:00)

Cosmos 2058 Rocket - Pass Details

Date: 27 January 2021
Orbit: 611 x 638 km, 82.5° (Epoch: 26 February)

Event Time Altitude Azimuth Distance (km) Brightness Sun altitude
Rises 06:14:46 0° 188° (S) 2,886 6.6 -11.3°
Reaches altitude 10° 06:16:58 10° 188° (S) 1,989 5.8 -11.0°
Maximum altitude 06:21:23 88° 101° (E) 634 3.1 -10.4°
Drops below altitude 10° 06:25:53 10° 11° (N) 2,023 5.6 -9.7°
Sets 06:28:09 0° 11° (NNE) 2,940 6.5 -9.4°
